Year,Month,Day,Hour,Minute,Value (Times are PST for temperature in C)
2006,07,20,00,00,13.70
2006,07,20,00,01,13.70
2006,07,20,00,02,13.70
2006,07,20,00,03,13.60
2006,07,20,00,04,13.60
2006,07,20,00,05,13.60
2006,07,20,00,06,13.60
2006,07,20,00,07,13.60
2006,07,20,00,08,13.60
2006,07,20,00,09,13.60
2006,07,20,00,10,13.60
2006,07,20,00,11,13.60
2006,07,20,00,12,13.60
2006,07,20,00,13,13.60
2006,07,20,00,14,13.60
2006,07,20,00,15,13.60
2006,07,20,00,16,13.60
2006,07,20,00,17,13.60
2006,07,20,00,18,13.60
2006,07,20,00,19,13.60
2006,07,20,00,20,13.50
2006,07,20,00,21,13.50
2006,07,20,00,22,13.50
2006,07,20,00,23,13.50
2006,07,20,00,24,13.50
2006,07,20,00,25,13.50
2006,07,20,00,26,13.50
2006,07,20,00,27,13.50
2006,07,20,00,28,13.50
2006,07,20,00,29,13.50
2006,07,20,00,30,13.50
2006,07,20,00,31,13.40
2006,07,20,00,32,13.40
2006,07,20,00,33,13.40
2006,07,20,00,34,13.40
2006,07,20,00,35,13.40
2006,07,20,00,36,13.40
2006,07,20,00,37,13.30
2006,07,20,00,38,13.30
2006,07,20,00,39,13.30
2006,07,20,00,40,13.30
2006,07,20,00,41,13.30
2006,07,20,00,42,13.30
2006,07,20,00,43,13.30
2006,07,20,00,44,13.30
2006,07,20,00,45,13.30
2006,07,20,00,46,13.30
2006,07,20,00,47,13.30
2006,07,20,00,48,13.30
2006,07,20,00,49,13.20
2006,07,20,00,50,13.20
2006,07,20,00,51,13.20
2006,07,20,00,52,13.20
2006,07,20,00,53,13.10
2006,07,20,00,54,13.10
2006,07,20,00,55,13.10
2006,07,20,00,56,13.10
2006,07,20,00,57,13.10
2006,07,20,00,58,13.00
2006,07,20,00,59,13.00
2006,07,20,01,00,13.00
2006,07,20,01,01,12.90
2006,07,20,01,02,12.90
2006,07,20,01,03,12.90
2006,07,20,01,04,12.80
2006,07,20,01,05,12.80
2006,07,20,01,06,12.80
2006,07,20,01,07,12.80
2006,07,20,01,08,12.80
2006,07,20,01,09,12.80
2006,07,20,01,10,12.80
2006,07,20,01,11,12.80
2006,07,20,01,12,12.80
2006,07,20,01,13,12.80
2006,07,20,01,14,12.80
2006,07,20,01,15,12.80
2006,07,20,01,16,12.80
2006,07,20,01,17,12.70
2006,07,20,01,18,12.70
2006,07,20,01,19,12.70
2006,07,20,01,20,12.70
2006,07,20,01,21,12.70
2006,07,20,01,22,12.70
2006,07,20,01,23,12.70
2006,07,20,01,24,12.70
2006,07,20,01,25,12.70
2006,07,20,01,26,12.70
2006,07,20,01,27,12.70
2006,07,20,01,28,12.70
2006,07,20,01,29,12.70
2006,07,20,01,30,12.70
2006,07,20,01,31,12.60
2006,07,20,01,32,12.60
2006,07,20,01,33,12.60
2006,07,20,01,34,12.60
2006,07,20,01,35,12.60
2006,07,20,01,36,12.60
2006,07,20,01,37,12.60
2006,07,20,01,38,12.60
2006,07,20,01,39,12.60
2006,07,20,01,40,12.60
2006,07,20,01,41,12.60
2006,07,20,01,42,12.60
2006,07,20,01,43,12.60
2006,07,20,01,44,12.60
2006,07,20,01,45,12.60
2006,07,20,01,46,12.50
2006,07,20,01,47,12.50
2006,07,20,01,48,12.50
2006,07,20,01,49,12.50
2006,07,20,01,50,12.50
2006,07,20,01,51,12.50
2006,07,20,01,52,12.50
2006,07,20,01,53,12.50
2006,07,20,01,54,12.50
2006,07,20,01,55,12.50
2006,07,20,01,56,12.50
2006,07,20,01,57,12.50
2006,07,20,01,58,12.50
2006,07,20,01,59,12.50
2006,07,20,02,00,12.50
2006,07,20,02,01,12.50
2006,07,20,02,02,12.50
2006,07,20,02,03,12.40
2006,07,20,02,04,12.40
2006,07,20,02,05,12.40
2006,07,20,02,06,12.40
2006,07,20,02,07,12.40
2006,07,20,02,08,12.40
2006,07,20,02,09,12.50
2006,07,20,02,10,12.50
2006,07,20,02,11,12.50
2006,07,20,02,12,12.60
2006,07,20,02,13,12.70
2006,07,20,02,14,12.70
2006,07,20,02,15,12.80
2006,07,20,02,16,12.80
2006,07,20,02,17,12.90
2006,07,20,02,18,12.90
2006,07,20,02,19,12.90
2006,07,20,02,20,12.80
2006,07,20,02,21,12.80
2006,07,20,02,22,12.80
2006,07,20,02,23,12.80
2006,07,20,02,24,12.80
2006,07,20,02,25,12.80
2006,07,20,02,26,12.70
2006,07,20,02,27,12.70
2006,07,20,02,28,12.60
2006,07,20,02,29,12.60
2006,07,20,02,30,12.50
2006,07,20,02,31,12.50
2006,07,20,02,32,12.40
2006,07,20,02,33,12.40
2006,07,20,02,34,12.40
2006,07,20,02,35,12.30
2006,07,20,02,36,12.30
2006,07,20,02,37,12.30
2006,07,20,02,38,12.30
2006,07,20,02,39,12.30
2006,07,20,02,40,12.30
2006,07,20,02,41,12.30
2006,07,20,02,42,12.30
2006,07,20,02,43,12.30
2006,07,20,02,44,12.20
2006,07,20,02,45,12.20
2006,07,20,02,46,12.20
2006,07,20,02,47,12.20
2006,07,20,02,48,12.20
2006,07,20,02,49,12.20
2006,07,20,02,50,12.20
2006,07,20,02,51,12.20
2006,07,20,02,52,12.20
2006,07,20,02,53,12.10
2006,07,20,02,54,12.10
2006,07,20,02,55,12.10
2006,07,20,02,56,12.00
2006,07,20,02,57,12.00
2006,07,20,02,58,12.00
2006,07,20,02,59,11.90
2006,07,20,03,00,11.90
2006,07,20,03,01,11.90
2006,07,20,03,02,11.90
2006,07,20,03,03,11.80
2006,07,20,03,04,11.80
2006,07,20,03,05,11.80
2006,07,20,03,06,11.80
2006,07,20,03,07,11.80
2006,07,20,03,08,11.80
2006,07,20,03,09,11.80
2006,07,20,03,10,11.80
2006,07,20,03,11,11.80
2006,07,20,03,12,11.80
2006,07,20,03,13,11.80
2006,07,20,03,14,11.90
2006,07,20,03,15,11.90
2006,07,20,03,16,11.90
2006,07,20,03,17,11.90
2006,07,20,03,18,11.90
2006,07,20,03,19,11.90
2006,07,20,03,20,11.90
2006,07,20,03,21,12.00
2006,07,20,03,22,12.00
2006,07,20,03,23,12.00
2006,07,20,03,24,12.00
2006,07,20,03,25,11.90
2006,07,20,03,26,11.90
2006,07,20,03,27,11.90
2006,07,20,03,28,11.90
2006,07,20,03,29,11.80
2006,07,20,03,30,11.80
2006,07,20,03,31,11.80
2006,07,20,03,32,11.80
2006,07,20,03,33,11.80
2006,07,20,03,34,11.80
2006,07,20,03,35,11.80
2006,07,20,03,36,11.80
2006,07,20,03,37,11.80
2006,07,20,03,38,11.80
2006,07,20,03,39,11.80
2006,07,20,03,40,11.70
2006,07,20,03,41,11.70
2006,07,20,03,42,11.70
2006,07,20,03,43,11.70
2006,07,20,03,44,11.70
2006,07,20,03,45,11.60
2006,07,20,03,46,11.60
2006,07,20,03,47,11.60
2006,07,20,03,48,11.60
2006,07,20,03,49,11.60
2006,07,20,03,50,11.60
2006,07,20,03,51,11.60
2006,07,20,03,52,11.60
2006,07,20,03,53,11.60
2006,07,20,03,54,11.60
2006,07,20,03,55,11.60
2006,07,20,03,56,11.60
2006,07,20,03,57,11.60
2006,07,20,03,58,11.60
2006,07,20,03,59,11.60
2006,07,20,04,00,11.60
2006,07,20,04,01,11.60
2006,07,20,04,02,11.60
2006,07,20,04,03,11.60
2006,07,20,04,04,11.60
2006,07,20,04,05,11.60
2006,07,20,04,06,11.60
2006,07,20,04,07,11.60
2006,07,20,04,08,11.50
2006,07,20,04,09,11.40
2006,07,20,04,10,11.40
2006,07,20,04,11,11.40
2006,07,20,04,12,11.40
2006,07,20,04,13,11.40
2006,07,20,04,14,11.40
2006,07,20,04,15,11.40
2006,07,20,04,16,11.40
2006,07,20,04,17,11.40
2006,07,20,04,18,11.40
2006,07,20,04,19,11.40
2006,07,20,04,20,11.40
2006,07,20,04,21,11.40
2006,07,20,04,22,11.40
2006,07,20,04,23,11.40
2006,07,20,04,24,11.40
2006,07,20,04,25,11.40
2006,07,20,04,26,11.40
2006,07,20,04,27,11.40
2006,07,20,04,28,11.40
2006,07,20,04,29,11.30
2006,07,20,04,30,11.30
2006,07,20,04,31,11.30
2006,07,20,04,32,11.30
2006,07,20,04,33,11.30
2006,07,20,04,34,11.30
2006,07,20,04,35,11.30
2006,07,20,04,36,11.30
2006,07,20,04,37,11.30
2006,07,20,04,38,11.30
2006,07,20,04,39,11.30
2006,07,20,04,40,11.30
2006,07,20,04,41,11.30
2006,07,20,04,42,11.30
2006,07,20,04,43,11.30
2006,07,20,04,44,11.30
2006,07,20,04,45,11.30
2006,07,20,04,46,11.30
2006,07,20,04,47,11.30
2006,07,20,04,48,11.30
2006,07,20,04,49,11.30
2006,07,20,04,50,11.30
2006,07,20,04,51,11.30
2006,07,20,04,52,11.30
2006,07,20,04,53,11.30
2006,07,20,04,54,11.30
2006,07,20,04,55,11.20
2006,07,20,04,56,11.20
2006,07,20,04,57,11.20
2006,07,20,04,58,11.20
2006,07,20,04,59,11.20
2006,07,20,05,00,11.20
2006,07,20,05,01,11.10
2006,07,20,05,02,11.10
2006,07,20,05,03,11.10
2006,07,20,05,04,11.10
2006,07,20,05,05,11.10
2006,07,20,05,06,11.10
2006,07,20,05,07,11.10
2006,07,20,05,08,11.10
2006,07,20,05,09,11.10
2006,07,20,05,10,11.10
2006,07,20,05,11,11.10
2006,07,20,05,12,11.10
2006,07,20,05,13,11.10
2006,07,20,05,14,11.10
2006,07,20,05,15,11.10
2006,07,20,05,16,11.10
2006,07,20,05,17,11.10
2006,07,20,05,18,11.20
2006,07,20,05,19,11.20
2006,07,20,05,20,11.20
2006,07,20,05,21,11.20
2006,07,20,05,22,11.20
2006,07,20,05,23,11.10
2006,07,20,05,24,11.10
2006,07,20,05,25,11.10
2006,07,20,05,26,11.10
2006,07,20,05,27,11.10
2006,07,20,05,28,11.10
2006,07,20,05,29,11.10
2006,07,20,05,30,11.10
2006,07,20,05,31,11.10
2006,07,20,05,32,11.10
2006,07,20,05,33,11.10
2006,07,20,05,34,11.10
2006,07,20,05,35,11.10
2006,07,20,05,36,11.10
2006,07,20,05,37,11.10
2006,07,20,05,38,11.10
2006,07,20,05,39,11.00
2006,07,20,05,40,10.90
2006,07,20,05,41,10.90
2006,07,20,05,42,10.90
2006,07,20,05,43,10.90
2006,07,20,05,44,10.90
2006,07,20,05,45,10.90
2006,07,20,05,46,11.00
2006,07,20,05,47,11.10
2006,07,20,05,48,11.10
2006,07,20,05,49,11.10
2006,07,20,05,50,11.10
2006,07,20,05,51,11.10
2006,07,20,05,52,11.20
2006,07,20,05,53,11.20
2006,07,20,05,54,11.20
2006,07,20,05,55,11.20
2006,07,20,05,56,11.20
2006,07,20,05,57,11.20
2006,07,20,05,58,11.30
2006,07,20,05,59,11.30
2006,07,20,06,00,11.30
2006,07,20,06,01,11.30
2006,07,20,06,02,11.30
2006,07,20,06,03,11.30
2006,07,20,06,04,11.20
2006,07,20,06,05,11.20
2006,07,20,06,06,11.20
2006,07,20,06,07,11.20
2006,07,20,06,08,11.20
2006,07,20,06,09,11.20
2006,07,20,06,10,11.10
2006,07,20,06,11,11.10
2006,07,20,06,12,11.10
2006,07,20,06,13,11.10
2006,07,20,06,14,11.10
2006,07,20,06,15,11.20
2006,07,20,06,16,11.20
2006,07,20,06,17,11.20
2006,07,20,06,18,11.20
2006,07,20,06,19,11.20
2006,07,20,06,20,11.20
2006,07,20,06,21,11.20
2006,07,20,06,22,11.30
2006,07,20,06,23,11.30
2006,07,20,06,24,11.30
2006,07,20,06,25,11.30
2006,07,20,06,26,11.40
2006,07,20,06,27,11.40
2006,07,20,06,28,11.40
2006,07,20,06,29,11.50
2006,07,20,06,30,11.60
2006,07,20,06,31,11.60
2006,07,20,06,32,11.70
2006,07,20,06,33,11.70
2006,07,20,06,34,11.80
2006,07,20,06,35,11.80
2006,07,20,06,36,11.90
2006,07,20,06,37,12.00
2006,07,20,06,38,12.10
2006,07,20,06,39,12.20
2006,07,20,06,40,12.30
2006,07,20,06,41,12.40
2006,07,20,06,42,12.40
2006,07,20,06,43,12.50
2006,07,20,06,44,12.60
2006,07,20,06,45,12.60
2006,07,20,06,46,12.70
2006,07,20,06,47,12.80
2006,07,20,06,48,12.80
2006,07,20,06,49,12.90
2006,07,20,06,50,13.00
2006,07,20,06,51,13.10
2006,07,20,06,52,13.20
2006,07,20,06,53,13.30
2006,07,20,06,54,13.30
2006,07,20,06,55,13.50
2006,07,20,06,56,13.60
2006,07,20,06,57,13.70
2006,07,20,06,58,13.80
2006,07,20,06,59,13.90
2006,07,20,07,00,14.00
2006,07,20,07,01,14.10
2006,07,20,07,02,14.20
2006,07,20,07,03,14.20
2006,07,20,07,04,14.20
2006,07,20,07,05,14.20
2006,07,20,07,06,14.30
2006,07,20,07,07,14.40
2006,07,20,07,08,14.50
2006,07,20,07,09,14.60
2006,07,20,07,10,14.70
2006,07,20,07,11,14.80
2006,07,20,07,12,14.80
2006,07,20,07,13,14.80
2006,07,20,07,14,14.90
2006,07,20,07,15,14.90
2006,07,20,07,16,15.00
2006,07,20,07,17,15.00
2006,07,20,07,18,15.10
2006,07,20,07,19,15.10
2006,07,20,07,20,15.20
2006,07,20,07,21,15.30
2006,07,20,07,22,15.40
2006,07,20,07,23,15.40
2006,07,20,07,24,15.40
2006,07,20,07,25,15.50
2006,07,20,07,26,15.50
2006,07,20,07,27,15.50
2006,07,20,07,28,15.50
2006,07,20,07,29,15.60
2006,07,20,07,30,15.60
2006,07,20,07,31,15.60
2006,07,20,07,32,15.70
2006,07,20,07,33,15.70
2006,07,20,07,34,15.70
2006,07,20,07,35,15.70
2006,07,20,07,36,15.80
2006,07,20,07,37,15.80
2006,07,20,07,38,15.80
2006,07,20,07,39,15.80
2006,07,20,07,40,15.90
2006,07,20,07,41,15.90
2006,07,20,07,42,16.00
2006,07,20,07,43,16.10
2006,07,20,07,44,16.10
2006,07,20,07,45,16.20
2006,07,20,07,46,16.20
2006,07,20,07,47,16.30
2006,07,20,07,48,16.30
2006,07,20,07,49,16.40
2006,07,20,07,50,16.40
2006,07,20,07,51,16.50
2006,07,20,07,52,16.60
2006,07,20,07,53,16.60
2006,07,20,07,54,16.70
2006,07,20,07,55,16.70
2006,07,20,07,56,16.70
2006,07,20,07,57,16.70
2006,07,20,07,58,16.80
2006,07,20,07,59,16.90
2006,07,20,08,00,16.90
2006,07,20,08,01,17.00
2006,07,20,08,02,17.00
2006,07,20,08,03,17.10
2006,07,20,08,04,17.20
2006,07,20,08,05,17.30
2006,07,20,08,06,17.30
2006,07,20,08,07,17.30
2006,07,20,08,08,17.40
2006,07,20,08,09,17.50
2006,07,20,08,10,17.50
2006,07,20,08,11,17.60
2006,07,20,08,12,17.70
2006,07,20,08,13,17.70
2006,07,20,08,14,17.80
2006,07,20,08,15,17.90
2006,07,20,08,16,17.90
2006,07,20,08,17,18.00
2006,07,20,08,18,18.10
2006,07,20,08,19,18.10
2006,07,20,08,20,18.20
2006,07,20,08,21,18.20
2006,07,20,08,22,18.30
2006,07,20,08,23,18.30
2006,07,20,08,24,18.40
2006,07,20,08,25,18.50
2006,07,20,08,26,18.50
2006,07,20,08,27,18.50
2006,07,20,08,28,18.60
2006,07,20,08,29,18.60
2006,07,20,08,30,18.70
2006,07,20,08,31,18.80
2006,07,20,08,32,18.90
2006,07,20,08,33,19.00
2006,07,20,08,34,19.10
2006,07,20,08,35,19.20
2006,07,20,08,36,19.30
2006,07,20,08,37,19.40
2006,07,20,08,38,19.50
2006,07,20,08,39,19.60
2006,07,20,08,40,19.70
2006,07,20,08,41,19.70
2006,07,20,08,42,19.90
2006,07,20,08,43,20.00
2006,07,20,08,44,20.20
2006,07,20,08,45,20.20
2006,07,20,08,46,20.30
2006,07,20,08,47,20.40
2006,07,20,08,48,20.40
2006,07,20,08,49,20.40
2006,07,20,08,50,20.30
2006,07,20,08,51,20.30
2006,07,20,08,52,20.30
2006,07,20,08,53,20.40
2006,07,20,08,54,20.50
2006,07,20,08,55,20.50
2006,07,20,08,56,20.60
2006,07,20,08,57,20.70
2006,07,20,08,58,20.80
2006,07,20,08,59,20.80
2006,07,20,09,00,20.90
2006,07,20,09,01,20.90
2006,07,20,09,02,21.00
2006,07,20,09,03,21.00
2006,07,20,09,04,20.90
2006,07,20,09,05,20.90
2006,07,20,09,06,21.00
2006,07,20,09,07,21.10
2006,07,20,09,08,21.10
2006,07,20,09,09,21.30
2006,07,20,09,10,21.30
2006,07,20,09,11,21.40
2006,07,20,09,12,21.40
2006,07,20,09,13,21.40
2006,07,20,09,14,21.40
2006,07,20,09,15,21.40
2006,07,20,09,16,21.50
2006,07,20,09,17,21.60
2006,07,20,09,18,21.60
2006,07,20,09,19,21.60
2006,07,20,09,20,21.60
2006,07,20,09,21,21.60
2006,07,20,09,22,21.60
2006,07,20,09,23,21.60
2006,07,20,09,24,21.60
2006,07,20,09,25,21.60
2006,07,20,09,26,21.70
2006,07,20,09,27,21.80
2006,07,20,09,28,21.80
2006,07,20,09,29,21.80
2006,07,20,09,30,21.80
2006,07,20,09,31,21.70
2006,07,20,09,32,21.70
2006,07,20,09,33,21.60
2006,07,20,09,34,21.50
2006,07,20,09,35,21.40
2006,07,20,09,36,21.40
2006,07,20,09,37,21.40
2006,07,20,09,38,21.50
2006,07,20,09,39,21.60
2006,07,20,09,40,21.60
2006,07,20,09,41,21.60
2006,07,20,09,42,21.60
2006,07,20,09,43,21.60
2006,07,20,09,44,21.60
2006,07,20,09,45,21.60
2006,07,20,09,46,21.60
2006,07,20,09,47,21.60
2006,07,20,09,48,21.60
2006,07,20,09,49,21.70
2006,07,20,09,50,21.70
2006,07,20,09,51,21.80
2006,07,20,09,52,21.90
2006,07,20,09,53,22.00
2006,07,20,09,54,22.00
2006,07,20,09,55,22.00
2006,07,20,09,56,22.20
2006,07,20,09,57,22.10
2006,07,20,09,58,22.10
2006,07,20,09,59,22.10
2006,07,20,10,00,22.10
2006,07,20,10,01,22.10
2006,07,20,10,02,22.10
2006,07,20,10,03,22.10
2006,07,20,10,04,22.00
2006,07,20,10,05,22.00
2006,07,20,10,06,22.00
2006,07,20,10,07,22.00
2006,07,20,10,08,22.00
2006,07,20,10,09,22.00
2006,07,20,10,10,22.00
2006,07,20,10,11,22.10
2006,07,20,10,12,22.20
2006,07,20,10,13,22.30
2006,07,20,10,14,22.30
2006,07,20,10,15,22.40
2006,07,20,10,16,22.50
2006,07,20,10,17,22.50
2006,07,20,10,18,22.30
2006,07,20,10,19,22.20
2006,07,20,10,20,22.20
2006,07,20,10,21,22.30
2006,07,20,10,22,22.30
2006,07,20,10,23,22.30
2006,07,20,10,24,22.30
2006,07,20,10,25,22.30
2006,07,20,10,26,22.30
2006,07,20,10,27,22.40
2006,07,20,10,28,22.40
2006,07,20,10,29,22.60
2006,07,20,10,30,22.60
2006,07,20,10,31,22.70
2006,07,20,10,32,22.80
2006,07,20,10,33,22.80
2006,07,20,10,34,22.70
2006,07,20,10,35,22.70
2006,07,20,10,36,22.70
2006,07,20,10,37,22.70
2006,07,20,10,38,22.70
2006,07,20,10,39,22.80
2006,07,20,10,40,22.80
2006,07,20,10,41,22.90
2006,07,20,10,42,22.90
2006,07,20,10,43,22.90
2006,07,20,10,44,22.90
2006,07,20,10,45,22.90
2006,07,20,10,46,22.90
2006,07,20,10,47,22.90
2006,07,20,10,48,23.00
2006,07,20,10,49,23.10
2006,07,20,10,50,23.20
2006,07,20,10,51,23.30
2006,07,20,10,52,23.30
2006,07,20,10,53,23.30
2006,07,20,10,54,23.30
2006,07,20,10,55,23.30
2006,07,20,10,56,23.30
2006,07,20,10,57,23.30
2006,07,20,10,58,23.30
2006,07,20,10,59,23.30
2006,07,20,11,00,23.30
2006,07,20,11,01,23.40
2006,07,20,11,02,23.40
2006,07,20,11,03,23.40
2006,07,20,11,04,23.50
2006,07,20,11,05,23.60
2006,07,20,11,06,23.60
2006,07,20,11,07,23.60
2006,07,20,11,08,23.70
2006,07,20,11,09,23.70
2006,07,20,11,10,23.70
2006,07,20,11,11,23.70
2006,07,20,11,12,23.70
2006,07,20,11,13,23.70
2006,07,20,11,14,23.60
2006,07,20,11,15,23.60
2006,07,20,11,16,23.60
2006,07,20,11,17,23.60
2006,07,20,11,18,23.60
2006,07,20,11,19,23.70
2006,07,20,11,20,23.70
2006,07,20,11,21,23.70
2006,07,20,11,22,23.70
2006,07,20,11,23,23.70
2006,07,20,11,24,23.80
2006,07,20,11,25,23.80
2006,07,20,11,26,23.80
2006,07,20,11,27,23.70
2006,07,20,11,28,23.80
2006,07,20,11,29,23.90
2006,07,20,11,30,23.90
2006,07,20,11,31,23.90
2006,07,20,11,32,23.90
2006,07,20,11,33,23.90
2006,07,20,11,34,24.00
2006,07,20,11,35,24.10
2006,07,20,11,36,24.10
2006,07,20,11,37,24.10
2006,07,20,11,38,24.10
2006,07,20,11,39,24.20
2006,07,20,11,40,24.10
2006,07,20,11,41,24.10
2006,07,20,11,42,24.10
2006,07,20,11,43,24.10
2006,07,20,11,44,24.10
2006,07,20,11,45,24.10
2006,07,20,11,46,24.10
2006,07,20,11,47,24.10
2006,07,20,11,48,24.00
2006,07,20,11,49,24.10
2006,07,20,11,50,24.10
2006,07,20,11,51,24.10
2006,07,20,11,52,24.10
2006,07,20,11,53,24.10
2006,07,20,11,54,24.00
2006,07,20,11,55,24.00
2006,07,20,11,56,23.90
2006,07,20,11,57,23.80
2006,07,20,11,58,23.80
2006,07,20,11,59,23.80
2006,07,20,12,00,23.70
2006,07,20,12,01,23.70
2006,07,20,12,02,23.80
2006,07,20,12,03,23.90
2006,07,20,12,04,24.10
2006,07,20,12,05,24.10
2006,07,20,12,06,24.30
2006,07,20,12,07,24.40
2006,07,20,12,08,24.40
2006,07,20,12,09,24.40
2006,07,20,12,10,24.50
2006,07,20,12,11,24.60
2006,07,20,12,12,24.70
2006,07,20,12,13,24.80
2006,07,20,12,14,24.90
2006,07,20,12,15,25.00
2006,07,20,12,16,25.10
2006,07,20,12,17,25.10
2006,07,20,12,18,25.10
2006,07,20,12,19,25.10
2006,07,20,12,20,25.00
2006,07,20,12,21,24.90
2006,07,20,12,22,24.90
2006,07,20,12,23,24.80
2006,07,20,12,24,24.80
2006,07,20,12,25,24.70
2006,07,20,12,26,24.60
2006,07,20,12,27,24.60
2006,07,20,12,28,24.70
2006,07,20,12,29,24.80
2006,07,20,12,30,24.80
2006,07,20,12,31,24.90
2006,07,20,12,32,25.10
2006,07,20,12,33,25.20
2006,07,20,12,34,25.40
2006,07,20,12,35,25.50
2006,07,20,12,36,25.60
2006,07,20,12,37,25.60
2006,07,20,12,38,25.60
2006,07,20,12,39,25.50
2006,07,20,12,40,25.50
2006,07,20,12,41,25.60
2006,07,20,12,42,25.70
2006,07,20,12,43,25.70
2006,07,20,12,44,25.70
2006,07,20,12,45,25.70
2006,07,20,12,46,25.70
2006,07,20,12,47,25.70
2006,07,20,12,48,25.80
2006,07,20,12,49,25.80
2006,07,20,12,50,25.70
2006,07,20,12,51,25.70
2006,07,20,12,52,25.80
2006,07,20,12,53,25.80
2006,07,20,12,54,25.90
2006,07,20,12,55,25.90
2006,07,20,12,56,25.50
2006,07,20,12,57,25.40
2006,07,20,12,58,25.30
2006,07,20,12,59,25.20
2006,07,20,13,00,25.20
2006,07,20,13,01,25.30
2006,07,20,13,02,25.40
2006,07,20,13,03,25.40
2006,07,20,13,04,25.40
2006,07,20,13,05,25.40
2006,07,20,13,06,25.50
2006,07,20,13,07,25.60
2006,07,20,13,08,25.60
2006,07,20,13,09,25.60
2006,07,20,13,10,25.70
2006,07,20,13,11,25.70
2006,07,20,13,12,25.90
2006,07,20,13,13,26.10
2006,07,20,13,14,26.20
2006,07,20,13,15,26.20
2006,07,20,13,16,26.10
2006,07,20,13,17,26.10
2006,07,20,13,18,26.00
2006,07,20,13,19,26.00
2006,07,20,13,20,26.10
2006,07,20,13,21,26.20
2006,07,20,13,22,26.20
2006,07,20,13,23,26.20
2006,07,20,13,24,26.10
2006,07,20,13,25,26.00
2006,07,20,13,26,25.80
2006,07,20,13,27,25.60
2006,07,20,13,28,25.60
2006,07,20,13,29,25.70
2006,07,20,13,30,25.70
2006,07,20,13,31,25.70
2006,07,20,13,32,25.70
2006,07,20,13,33,25.70
2006,07,20,13,34,25.60
2006,07,20,13,35,25.70
2006,07,20,13,36,25.80
2006,07,20,13,37,25.80
2006,07,20,13,38,26.00
2006,07,20,13,39,26.10
2006,07,20,13,40,26.10
2006,07,20,13,41,26.10
2006,07,20,13,42,26.10
2006,07,20,13,43,26.10
2006,07,20,13,44,26.00
2006,07,20,13,45,26.10
2006,07,20,13,46,26.20
2006,07,20,13,47,26.30
2006,07,20,13,48,26.40
2006,07,20,13,49,26.50
2006,07,20,13,50,26.60
2006,07,20,13,51,26.60
2006,07,20,13,52,26.70
2006,07,20,13,53,26.80
2006,07,20,13,54,26.80
2006,07,20,13,55,26.70
2006,07,20,13,56,26.60
2006,07,20,13,57,26.60
2006,07,20,13,58,26.60
2006,07,20,13,59,26.60
2006,07,20,14,00,26.60
2006,07,20,14,01,26.60
2006,07,20,14,02,26.60
2006,07,20,14,03,26.60
2006,07,20,14,04,26.60
2006,07,20,14,05,26.70
2006,07,20,14,06,26.80
2006,07,20,14,07,26.70
2006,07,20,14,08,26.50
2006,07,20,14,09,26.30
2006,07,20,14,10,26.20
2006,07,20,14,11,26.20
2006,07,20,14,12,26.20
2006,07,20,14,13,26.30
2006,07,20,14,14,26.30
2006,07,20,14,15,26.20
2006,07,20,14,16,26.10
2006,07,20,14,17,26.00
2006,07,20,14,18,25.90
2006,07,20,14,19,25.90
2006,07,20,14,20,25.90
2006,07,20,14,21,25.90
2006,07,20,14,22,25.90
2006,07,20,14,23,25.90
2006,07,20,14,24,25.90
2006,07,20,14,25,26.00
2006,07,20,14,26,26.10
2006,07,20,14,27,26.10
2006,07,20,14,28,26.20
2006,07,20,14,29,26.30
2006,07,20,14,30,26.40
2006,07,20,14,31,26.40
2006,07,20,14,32,26.50
2006,07,20,14,33,26.60
2006,07,20,14,34,26.60
2006,07,20,14,35,26.60
2006,07,20,14,36,26.70
2006,07,20,14,37,26.70
2006,07,20,14,38,26.70
2006,07,20,14,39,26.70
2006,07,20,14,40,26.70
2006,07,20,14,41,26.70
2006,07,20,14,42,26.60
2006,07,20,14,43,26.60
2006,07,20,14,44,26.60
2006,07,20,14,45,26.60
2006,07,20,14,46,26.60
2006,07,20,14,47,26.60
2006,07,20,14,48,26.60
2006,07,20,14,49,26.60
2006,07,20,14,50,26.80
2006,07,20,14,51,26.90
2006,07,20,14,52,27.10
2006,07,20,14,53,27.20
2006,07,20,14,54,27.30
2006,07,20,14,55,27.20
2006,07,20,14,56,27.20
2006,07,20,14,57,27.30
2006,07,20,14,58,27.30
2006,07,20,14,59,27.30
2006,07,20,15,00,27.30
2006,07,20,15,01,27.30
2006,07,20,15,02,27.30
2006,07,20,15,03,27.30
2006,07,20,15,04,27.40
2006,07,20,15,05,27.50
2006,07,20,15,06,27.60
2006,07,20,15,07,27.60
2006,07,20,15,08,27.50
2006,07,20,15,09,27.40
2006,07,20,15,10,27.40
2006,07,20,15,11,27.40
2006,07,20,15,12,27.50
2006,07,20,15,13,27.60
2006,07,20,15,14,27.70
2006,07,20,15,15,27.70
2006,07,20,15,16,27.70
2006,07,20,15,17,27.70
2006,07,20,15,18,27.60
2006,07,20,15,19,27.40
2006,07,20,15,20,27.30
2006,07,20,15,21,27.30
2006,07,20,15,22,27.30
2006,07,20,15,23,27.40
2006,07,20,15,24,27.50
2006,07,20,15,25,27.60
2006,07,20,15,26,27.80
2006,07,20,15,27,27.80
2006,07,20,15,28,27.90
2006,07,20,15,29,27.90
2006,07,20,15,30,27.90
2006,07,20,15,31,27.90
2006,07,20,15,32,27.90
2006,07,20,15,33,27.90
2006,07,20,15,34,27.90
2006,07,20,15,35,27.80
2006,07,20,15,36,27.70
2006,07,20,15,37,27.70
2006,07,20,15,38,27.70
2006,07,20,15,39,27.80
2006,07,20,15,40,27.90
2006,07,20,15,41,27.90
2006,07,20,15,42,27.90
2006,07,20,15,43,28.10
2006,07,20,15,44,28.10
2006,07,20,15,45,28.00
2006,07,20,15,46,28.00
2006,07,20,15,47,28.00
2006,07,20,15,48,28.00
2006,07,20,15,49,27.90
2006,07,20,15,50,27.90
2006,07,20,15,51,27.80
2006,07,20,15,52,27.80
2006,07,20,15,53,27.80
2006,07,20,15,54,27.80
2006,07,20,15,55,27.80
2006,07,20,15,56,27.80
2006,07,20,15,57,27.70
2006,07,20,15,58,27.70
2006,07,20,15,59,27.70
2006,07,20,16,00,27.70
2006,07,20,16,01,27.70
2006,07,20,16,02,27.70
2006,07,20,16,03,27.70
2006,07,20,16,04,27.70
2006,07,20,16,05,27.70
2006,07,20,16,06,27.80
2006,07,20,16,07,28.00
2006,07,20,16,08,28.10
2006,07,20,16,09,28.20
2006,07,20,16,10,28.20
2006,07,20,16,11,28.20
2006,07,20,16,12,28.20
2006,07,20,16,13,28.20
2006,07,20,16,14,28.10
2006,07,20,16,15,28.10
2006,07,20,16,16,28.10
2006,07,20,16,17,28.20
2006,07,20,16,18,28.10
2006,07,20,16,19,28.10
2006,07,20,16,20,28.10
2006,07,20,16,21,28.10
2006,07,20,16,22,28.10
2006,07,20,16,23,28.10
2006,07,20,16,24,28.10
2006,07,20,16,25,28.20
2006,07,20,16,26,28.30
2006,07,20,16,27,28.40
2006,07,20,16,28,28.40
2006,07,20,16,29,28.40
2006,07,20,16,30,28.40
2006,07,20,16,31,28.40
2006,07,20,16,32,28.50
2006,07,20,16,33,28.60
2006,07,20,16,34,28.70
2006,07,20,16,35,28.80
2006,07,20,16,36,28.80
2006,07,20,16,37,28.80
2006,07,20,16,38,28.90
2006,07,20,16,39,28.90
2006,07,20,16,40,28.90
2006,07,20,16,41,28.80
2006,07,20,16,42,28.80
2006,07,20,16,43,28.70
2006,07,20,16,44,28.70
2006,07,20,16,45,28.60
2006,07,20,16,46,28.60
2006,07,20,16,47,28.70
2006,07,20,16,48,28.70
2006,07,20,16,49,28.70
2006,07,20,16,50,28.70
2006,07,20,16,51,28.70
2006,07,20,16,52,28.70
2006,07,20,16,53,28.70
2006,07,20,16,54,28.80
2006,07,20,16,55,28.80
2006,07,20,16,56,28.80
2006,07,20,16,57,28.80
2006,07,20,16,58,28.90
2006,07,20,16,59,28.90
2006,07,20,17,00,28.90
2006,07,20,17,01,28.90
2006,07,20,17,02,28.90
2006,07,20,17,03,28.90
2006,07,20,17,04,28.80
2006,07,20,17,05,28.80
2006,07,20,17,06,28.80
2006,07,20,17,07,28.70
2006,07,20,17,08,28.60
2006,07,20,17,09,28.50
2006,07,20,17,10,28.40
2006,07,20,17,11,28.30
2006,07,20,17,12,28.20
2006,07,20,17,13,28.20
2006,07,20,17,14,28.10
2006,07,20,17,15,28.10
2006,07,20,17,16,28.20
2006,07,20,17,17,28.20
2006,07,20,17,18,28.20
2006,07,20,17,19,28.20